| time (UTC) | temp F | wind direction | speed MPH | gust MPH | rain 1hr in | rain 24hr in | rain mn in | humidity % | barometer mb |
| 20260905042351 | 56 | 225 | 2.0 | 2.0 | 0.00 | 0.00 | 0.02 | 86 | 1013.7 |
| 20260905041832 | 56 | 225 | 2.0 | 2.0 | 0.00 | 0.00 | 0.02 | 86 | 1013.7 |
| 20260905041311 | 56 | 225 | 2.0 | 2.0 | 0.00 | 0.00 | 0.02 | 86 | 1013.7 |
| 20260905040751 | 56 | 248 | 0.0 | 0.0 | 0.00 | 0.00 | 0.02 | 86 | 1013.7 |
| 20260905040237 | 57 | 293 | 0.0 | 0.0 | 0.00 | 0.00 | 0.02 | 84 | 1013.5 |
| 20260905035716 | 57 | 225 | 0.0 | 0.0 | 0.00 | 0.00 | 0.02 | 84 | 1013.5 |
| 20260905035156 | 57 | 113 | 1.0 | 1.0 | 0.00 | 0.00 | 0.02 | 84 | 1013.4 |
| 20260905034637 | 57 | 203 | 2.0 | 2.0 | 0.00 | 0.00 | 0.02 | 84 | 1013.4 |
| 20260905034121 | 57 | 225 | 3.0 | 3.0 | 0.00 | 0.00 | 0.02 | 84 | 1013.1 |
| 20260905033601 | 57 | 203 | 2.0 | 2.0 | 0.00 | 0.00 | 0.02 | 84 | 1013.1 |
| 20260905033042 | 57 | 225 | 3.0 | 3.0 | 0.00 | 0.00 | 0.02 | 83 | 1013.1 |
| 20260905032007 | 58 | 248 | 4.0 | 4.0 | 0.00 | 0.00 | 0.02 | 82 | 1013.1 |
| 20260905030927 | 58 | 270 | 3.0 | 3.0 | 0.00 | 0.00 | 0.02 | 81 | 1013.1 |
| 20260905030406 | 58 | 225 | 4.0 | 4.0 | 0.00 | 0.00 | 0.02 | 80 | 1013.1 |
| 20260905025852 | 58 | 225 | 3.0 | 3.0 | 0.00 | 0.00 | 0.02 | 80 | 1013.1 |
| 20260905025331 | 59 | 270 | 4.0 | 4.0 | 0.00 | 0.00 | 0.02 | 79 | 1013.1 |
| 20260905024811 | 59 | 203 | 3.0 | 3.0 | 0.00 | 0.00 | 0.02 | 78 | 1013.1 |
| 20260905024251 | 59 | 203 | 3.0 | 3.0 | 0.00 | 0.00 | 0.02 | 77 | 1013.1 |
| 20260905023237 | 60 | 293 | 3.0 | 3.0 | 0.00 | 0.00 | 0.02 | 76 | 1013.1 |
| 20260905022156 | 60 | 248 | 2.0 | 2.0 | 0.00 | 0.00 | 0.02 | 74 | 1013.1 |
| 20260905021636 | 61 | 225 | 4.0 | 4.0 | 0.00 | 0.00 | 0.02 | 73 | 1013.1 |
| 20260905021122 | 61 | 248 | 2.0 | 2.0 | 0.00 | 0.00 | 0.02 | 73 | 1013.1 |
| 20260905020602 | 61 | 293 | 4.0 | 4.0 | 0.00 | 0.00 | 0.02 | 72 | 1013.1 |
| 20260905015542 | 62 | 225 | 4.0 | 4.0 | 0.00 | 0.00 | 0.02 | 70 | 1013.1 |
| 20260905015042 | 62 | 270 | 4.0 | 4.0 | 0.00 | 0.00 | 0.02 | 69 | 1013.1 |
| 20260905014522 | 63 | 203 | 4.0 | 4.0 | 0.00 | 0.00 | 0.02 | 68 | 1013.1 |
| 20260905014006 | 63 | 203 | 4.0 | 4.0 | 0.00 | 0.00 | 0.02 | 66 | 1013.1 |
| 20260905013447 | 63 | 180 | 5.0 | 5.0 | 0.00 | 0.00 | 0.02 | 66 | 1013.1 |
| 20260905012926 | 63 | 225 | 5.0 | 5.0 | 0.00 | 0.00 | 0.02 | 65 | 1013.1 |
| 20260905012406 | 64 | 270 | 3.0 | 3.0 | 0.00 | 0.00 | 0.02 | 65 | 1013.1 |
| 20260905011852 | 64 | 338 | 5.0 | 5.0 | 0.00 | 0.00 | 0.02 | 65 | 1013.1 |
| 20260905011351 | 64 | 45 | 5.0 | 5.0 | 0.00 | 0.00 | 0.02 | 64 | 1013.1 |
| 20260905010832 | 65 | 203 | 7.0 | 7.0 | 0.00 | 0.00 | 0.02 | 63 | 1013.1 |
| 20260905010312 | 66 | 270 | 5.0 | 5.0 | 0.00 | 0.00 | 0.02 | 61 | 1013.1 |
| 20260905005237 | 68 | 270 | 4.0 | 4.0 | 0.00 | 0.00 | 0.02 | 57 | 1013.1 |
| 20260905003636 | 73 | 270 | 5.0 | 5.0 | 0.00 | 0.00 | 0.02 | 55 | 1013.1 |
| 20260905003116 | 73 | 225 | 5.0 | 5.0 | 0.00 | 0.00 | 0.02 | 55 | 1013.1 |
| 20260905002602 | 72 | 225 | 4.0 | 4.0 | 0.00 | 0.00 | 0.02 | 55 | 1013.1 |
| 20260905002041 | 72 | 270 | 6.0 | 6.0 | 0.00 | 0.00 | 0.02 | 55 | 1013.1 |
| 20260905001542 | 72 | 225 | 5.0 | 5.0 | 0.00 | 0.00 | 0.02 | 54 | 1013.1 |
| 20260905001022 | 73 | 225 | 7.0 | 7.0 | 0.00 | 0.00 | 0.02 | 54 | 1013.1 |
| 20260905000502 | 73 | 203 | 5.0 | 5.0 | 0.00 | 0.00 | 0.02 | 55 | 1013.1 |
| 20260904235946 | 73 | 248 | 6.0 | 6.0 | 0.00 | 0.00 | 0.02 | 54 | 1013.1 |
| 20260904235427 | 73 | 293 | 4.0 | 4.0 | 0.00 | 0.00 | 0.02 | 55 | 1013.1 |
| 20260904234907 | 73 | 270 | 6.0 | 6.0 | 0.00 | 0.00 | 0.02 | 54 | 1013.3 |
| 20260904234347 | 73 | 248 | 6.0 | 6.0 | 0.00 | 0.00 | 0.02 | 54 | 1013.3 |
| 20260904233832 | 74 | 203 | 4.0 | 4.0 | 0.00 | 0.00 | 0.02 | 54 | 1013.1 |
| 20260904233232 | 74 | 203 | 5.0 | 5.0 | 0.00 | 0.00 | 0.02 | 54 | 1013.1 |
| 20260904232717 | 73 | 270 | 7.0 | 7.0 | 0.00 | 0.00 | 0.02 | 53 | 1013.3 |
| 20260904231637 | 75 | 225 | 6.0 | 6.0 | 0.00 | 0.00 | 0.02 | 52 | 1013.3 |
| 20260904231041 | 74 | 293 | 4.0 | 4.0 | 0.00 | 0.00 | 0.02 | 53 | 1013.3 |
| 20260904230522 | 74 | 225 | 6.0 | 6.0 | 0.00 | 0.00 | 0.02 | 53 | 1013.3 |
| 20260904225847 | 75 | 180 | 5.0 | 5.0 | 0.00 | 0.00 | 0.02 | 53 | 1013.3 |
| 20260904225327 | 75 | 203 | 5.0 | 5.0 | 0.00 | 0.00 | 0.02 | 52 | 1013.3 |
| 20260904224812 | 75 | 248 | 8.0 | 8.0 | 0.00 | 0.00 | 0.02 | 52 | 1013.3 |
| 20260904223732 | 76 | 225 | 5.0 | 5.0 | 0.00 | 0.00 | 0.02 | 51 | 1013.4 |
| 20260904223212 | 77 | 315 | 4.0 | 4.0 | 0.00 | 0.00 | 0.02 | 50 | 1013.4 |
| 20260904222657 | 76 | 225 | 6.0 | 6.0 | 0.00 | 0.00 | 0.02 | 49 | 1013.6 |
| 20260904222137 | 77 | 225 | 4.0 | 4.0 | 0.00 | 0.00 | 0.02 | 50 | 1013.6 |
| 20260904221617 | 77 | 45 | 3.0 | 3.0 | 0.00 | 0.00 | 0.02 | 52 | 1013.5 |
| 20260904221057 | 78 | 248 | 7.0 | 7.0 | 0.00 | 0.00 | 0.02 | 49 | 1013.5 |
| 20260904220022 | 76 | 203 | 6.0 | 6.0 | 0.00 | 0.00 | 0.02 | 50 | 1013.6 |
| 20260904215442 | 76 | 203 | 6.0 | 6.0 | 0.00 | 0.00 | 0.02 | 51 | 1013.6 |
| 20260904214922 | 76 | 293 | 6.0 | 6.0 | 0.00 | 0.00 | 0.02 | 51 | 1013.6 |
| 20260904214252 | 75 | 225 | 5.0 | 5.0 | 0.00 | 0.00 | 0.02 | 53 | 1013.6 |
| 20260904213732 | 76 | 248 | 5.0 | 5.0 | 0.00 | 0.00 | 0.02 | 53 | 1013.6 |
| 20260904213212 | 75 | 203 | 5.0 | 5.0 | 0.00 | 0.00 | 0.02 | 53 | 1013.6 |
| 20260904212407 | 75 | 248 | 8.0 | 8.0 | 0.00 | 0.00 | 0.02 | 52 | 1013.6 |
| 20260904211847 | 76 | 225 | 6.0 | 6.0 | 0.00 | 0.00 | 0.02 | 51 | 1013.6 |
| 20260904211327 | 76 | 225 | 4.0 | 4.0 | 0.00 | 0.00 | 0.02 | 52 | 1013.6 |
| 20260904210807 | 75 | 270 | 6.0 | 6.0 | 0.00 | 0.00 | 0.02 | 52 | 1013.6 |
| 20260904210252 | 75 | 270 | 4.0 | 4.0 | 0.00 | 0.00 | 0.02 | 53 | 1013.7 |
| 20260904205752 | 75 | 225 | 6.0 | 6.0 | 0.00 | 0.00 | 0.02 | 51 | 1013.7 |
| 20260904205232 | 75 | 315 | 5.0 | 5.0 | 0.00 | 0.00 | 0.02 | 51 | 1013.6 |
| 20260904204712 | 75 | 248 | 6.0 | 6.0 | 0.00 | 0.00 | 0.02 | 51 | 1013.6 |
| 20260904204152 | 75 | 248 | 6.0 | 6.0 | 0.00 | 0.00 | 0.02 | 52 | 1013.5 |
| 20260904203617 | 75 | 248 | 7.0 | 7.0 | 0.00 | 0.00 | 0.02 | 52 | 1013.5 |
| 20260904203057 | 76 | 180 | 5.0 | 5.0 | 0.00 | 0.00 | 0.02 | 51 | 1013.5 |
| 20260904202537 | 77 | 180 | 4.0 | 4.0 | 0.00 | 0.00 | 0.02 | 52 | 1013.5 |
| 20260904201502 | 75 | 225 | 4.0 | 4.0 | 0.00 | 0.00 | 0.02 | 54 | 1013.5 |
| 20260904200422 | 75 | 203 | 3.0 | 3.0 | 0.00 | 0.00 | 0.02 | 55 | 1013.6 |
| 20260904195347 | 74 | 270 | 5.0 | 5.0 | 0.00 | 0.00 | 0.02 | 55 | 1013.5 |
| 20260904194827 | 75 | 90 | 5.0 | 5.0 | 0.00 | 0.00 | 0.02 | 55 | 1013.5 |
| 20260904194307 | 74 | 68 | 5.0 | 5.0 | 0.00 | 0.00 | 0.02 | 56 | 1013.5 |
| 20260904193752 | 75 | 158 | 4.0 | 4.0 | 0.00 | 0.00 | 0.02 | 54 | 1013.6 |
| 20260904193247 | 73 | 293 | 3.0 | 3.0 | 0.00 | 0.00 | 0.02 | 56 | 1013.6 |
| 20260904192212 | 76 | 225 | 4.0 | 4.0 | 0.00 | 0.00 | 0.02 | 54 | 1013.5 |
| 20260904191712 | 75 | 203 | 3.0 | 3.0 | 0.00 | 0.00 | 0.02 | 53 | 1013.7 |
| 20260904191152 | 77 | 135 | 4.0 | 4.0 | 0.00 | 0.00 | 0.02 | 55 | 1013.7 |
| 20260904190117 | 73 | 180 | 3.0 | 3.0 | 0.00 | 0.00 | 0.02 | 58 | 1013.7 |
| 20260904185037 | 70 | 90 | 3.0 | 3.0 | 0.00 | 0.00 | 0.02 | 61 | 1013.8 |
| 20260904184517 | 70 | 225 | 3.0 | 3.0 | 0.00 | 0.00 | 0.02 | 61 | 1013.8 |
| 20260904183442 | 72 | 113 | 3.0 | 3.0 | 0.00 | 0.00 | 0.02 | 58 | 1013.6 |
| 20260904182922 | 74 | 158 | 3.0 | 3.0 | 0.00 | 0.00 | 0.02 | 56 | 1013.7 |
| 20260904182402 | 75 | 113 | 5.0 | 5.0 | 0.00 | 0.00 | 0.02 | 56 | 1013.7 |
| 20260904181847 | 75 | 135 | 3.0 | 3.0 | 0.00 | 0.00 | 0.02 | 52 | 1013.7 |
| 20260904181327 | 77 | 90 | 2.0 | 2.0 | 0.00 | 0.00 | 0.02 | 54 | 1013.7 |
| 20260904180807 | 77 | 45 | 4.0 | 4.0 | 0.00 | 0.00 | 0.02 | 55 | 1013.7 |
| 20260904180247 | 77 | 113 | 3.0 | 3.0 | 0.00 | 0.00 | 0.02 | 53 | 1013.8 |
| 20260904175732 | 74 | 338 | 2.0 | 2.0 | 0.00 | 0.00 | 0.02 | 57 | 1013.8 |
| 20260904175212 | 73 | 180 | 3.0 | 3.0 | 0.00 | 0.00 | 0.02 | 58 | 1013.7 |
| 20260904174652 | 74 | 45 | 4.0 | 4.0 | 0.00 | 0.00 | 0.02 | 58 | 1013.7 |
| 20260904174132 | 73 | 45 | 1.0 | 1.0 | 0.00 | 0.00 | 0.02 | 58 | 1013.7 |
| 20260904173617 | 72 | 113 | 2.0 | 2.0 | 0.00 | 0.00 | 0.02 | 61 | 1013.7 |
| 20260904173057 | 71 | 90 | 4.0 | 4.0 | 0.00 | 0.00 | 0.02 | 60 | 1013.7 |
| 20260904172537 | 71 | 113 | 3.0 | 3.0 | 0.00 | 0.00 | 0.02 | 59 | 1013.5 |
| 20260904172017 | 71 | 45 | 4.0 | 4.0 | 0.00 | 0.00 | 0.02 | 60 | 1013.5 |
| 20260904171502 | 72 | 68 | 3.0 | 3.0 | 0.00 | 0.00 | 0.02 | 60 | 1013.5 |
| 20260904170942 | 73 | 68 | 4.0 | 4.0 | 0.00 | 0.00 | 0.02 | 59 | 1013.5 |
| 20260904170423 | 72 | 248 | 4.0 | 4.0 | 0.00 | 0.00 | 0.02 | 59 | 1013.5 |
| 20260904165902 | 73 | 45 | 3.0 | 3.0 | 0.00 | 0.00 | 0.02 | 60 | 1013.5 |
| 20260904164807 | 73 | 45 | 2.0 | 2.0 | 0.00 | 0.00 | 0.02 | 61 | 1013.5 |
| 20260904162652 | 71 | 113 | 0.0 | 0.0 | 0.00 | 0.00 | 0.02 | 62 | 1013.4 |
| 20260904161613 | 71 | 45 | 0.0 | 0.0 | 0.00 | 0.00 | 0.02 | 63 | 1013.4 |
| 20260904161057 | 70 | 68 | 0.0 | 0.0 | 0.00 | 0.00 | 0.02 | 65 | 1013.4 |
| 20260904160537 | 69 | 68 | 0.0 | 0.0 | 0.00 | 0.00 | 0.02 | 66 | 1013.4 |
| 20260904160017 | 70 | 68 | 0.0 | 0.0 | 0.00 | 0.00 | 0.02 | 66 | 1013.4 |
| 20260904155457 | 70 | 113 | 0.0 | 0.0 | 0.00 | 0.00 | 0.02 | 67 | 1013.4 |
| 20260904154942 | 68 | 45 | 0.0 | 0.0 | 0.00 | 0.00 | 0.02 | 73 | 1013.4 |
| 20260904154422 | 67 | 225 | 0.0 | 0.0 | 0.00 | 0.00 | 0.02 | 76 | 1013.4 |
| 20260904153902 | 66 | 225 | 0.0 | 0.0 | 0.00 | 0.00 | 0.02 | 77 | 1013.4 |
| 20260904153342 | 67 | 113 | 0.0 | 0.0 | 0.00 | 0.00 | 0.02 | 82 | 1013.4 |
| 20260904152827 | 65 | 158 | 0.0 | 0.0 | 0.00 | 0.00 | 0.02 | 87 | 1013.3 |
| 20260904152307 | 62 | 158 | 0.0 | 0.0 | 0.00 | 0.00 | 0.02 | 86 | 1013.3 |
| 20260904151747 | 62 | 45 | 0.0 | 0.0 | 0.00 | 0.00 | 0.02 | 97 | 1013.1 |
| 20260904151227 | 60 | 113 | 0.0 | 0.0 | 0.00 | 0.00 | 0.02 | 97 | 1013.1 |
| 20260904150712 | 58 | 180 | 0.0 | 0.0 | 0.00 | 0.00 | 0.02 | 97 | 1013.1 |
| 20260904150212 | 57 | 203 | 0.0 | 0.0 | 0.00 | 0.00 | 0.02 | 97 | 1013.0 |
| 20260904145652 | 55 | 248 | 0.0 | 0.0 | 0.00 | 0.00 | 0.02 | 97 | 1013.0 |
| 20260904145132 | 54 | 248 | 0.0 | 0.0 | 0.00 | 0.00 | 0.02 | 97 | 1012.9 |
| 20260904144612 | 54 | 248 | 0.0 | 0.0 | 0.01 | 0.00 | 0.02 | 97 | 1012.9 |
| 20260904144057 | 53 | 248 | 0.0 | 0.0 | 0.01 | 0.00 | 0.02 | 97 | 1012.8 |
| 20260904143537 | 52 | 248 | 0.0 | 0.0 | 0.01 | 0.00 | 0.02 | 97 | 1012.8 |
| 20260904143017 | 51 | 225 | 0.0 | 0.0 | 0.01 | 0.00 | 0.02 | 97 | 1012.6 |
| 20260904141943 | 49 | 225 | 0.0 | 0.0 | 0.01 | 0.00 | 0.02 | 97 | 1012.6 |
| 20260904141423 | 49 | 248 | 0.0 | 0.0 | 0.01 | 0.00 | 0.02 | 97 | 1012.6 |
| 20260904140902 | 48 | 225 | 0.0 | 0.0 | 0.01 | 0.00 | 0.02 | 97 | 1012.6 |
| 20260904140342 | 48 | 248 | 0.0 | 0.0 | 0.01 | 0.00 | 0.02 | 97 | 1012.4 |
| 20260904135827 | 48 | 225 | 0.0 | 0.0 | 0.01 | 0.00 | 0.02 | 97 | 1012.4 |
| 20260904135307 | 48 | 225 | 0.0 | 0.0 | 0.01 | 0.00 | 0.02 | 97 | 1012.2 |
| 20260904134748 | 48 | 248 | 0.0 | 0.0 | 0.00 | 0.00 | 0.01 | 97 | 1012.2 |
| 20260904134227 | 48 | 248 | 0.0 | 0.0 | 0.00 | 0.00 | 0.01 | 97 | 1012.1 |
| 20260904133712 | 48 | 248 | 0.0 | 0.0 | 0.00 | 0.00 | 0.01 | 97 | 1012.1 |
| 20260904133152 | 49 | 270 | 0.0 | 0.0 | 0.00 | 0.00 | 0.01 | 97 | 1012.1 |
| 20260904132112 | 49 | 225 | 0.0 | 0.0 | 0.00 | 0.00 | 0.01 | 97 | 1012.1 |
| 20260904131613 | 49 | 225 | 0.0 | 0.0 | 0.00 | 0.00 | 0.01 | 97 | 1011.9 |
| 20260904131057 | 49 | 248 | 0.0 | 0.0 | 0.00 | 0.00 | 0.01 | 97 | 1011.9 |
| 20260904130018 | 49 | 248 | 0.0 | 0.0 | 0.00 | 0.00 | 0.01 | 97 | 1011.9 |
| 20260904125458 | 49 | 248 | 0.0 | 0.0 | 0.00 | 0.00 | 0.01 | 97 | 1011.9 |
| 20260904123903 | 49 | 225 | 0.0 | 0.0 | 0.00 | 0.00 | 0.01 | 97 | 1011.7 |
| 20260904123343 | 49 | 248 | 0.0 | 0.0 | 0.00 | 0.00 | 0.01 | 97 | 1011.7 |
| 20260904122827 | 49 | 248 | 0.0 | 0.0 | 0.00 | 0.00 | 0.01 | 97 | 1011.6 |
| 20260904122307 | 49 | 225 | 0.0 | 0.0 | 0.01 | 0.00 | 0.01 | 96 | 1011.6 |
| 20260904121747 | 49 | 248 | 0.0 | 0.0 | 0.01 | 0.00 | 0.01 | 96 | 1011.7 |
| 20260904121228 | 49 | 248 | 0.0 | 0.0 | 0.01 | 0.00 | 0.01 | 96 | 1011.7 |
| 20260904120712 | 49 | 248 | 0.0 | 0.0 | 0.01 | 0.00 | 0.01 | 96 | 1011.7 |
| 20260904115633 | 49 | 225 | 0.0 | 0.0 | 0.01 | 0.00 | 0.01 | 96 | 1011.6 |
| 20260904115113 | 49 | 225 | 0.0 | 0.0 | 0.01 | 0.00 | 0.01 | 96 | 1011.6 |
| 20260904114538 | 49 | 248 | 0.0 | 0.0 | 0.01 | 0.00 | 0.01 | 96 | 1011.6 |
| 20260904114018 | 49 | 248 | 0.0 | 0.0 | 0.01 | 0.00 | 0.01 | 96 | 1011.7 |
| 20260904113457 | 50 | 248 | 0.0 | 0.0 | 0.01 | 0.00 | 0.01 | 96 | 1011.7 |
| 20260904112423 | 50 | 248 | 0.0 | 0.0 | 0.00 | 0.00 | 0.00 | 96 | 1011.7 |
| 20260904111903 | 50 | 225 | 0.0 | 0.0 | 0.00 | 0.00 | 0.00 | 96 | 1011.7 |
| 20260904111343 | 50 | 225 | 0.0 | 0.0 | 0.00 | 0.00 | 0.00 | 96 | 1011.5 |
| 20260904110828 | 50 | 248 | 0.0 | 0.0 | 0.00 | 0.00 | 0.00 | 96 | 1011.5 |
| 20260904110308 | 50 | 225 | 0.0 | 0.0 | 0.00 | 0.00 | 0.00 | 96 | 1011.5 |
| 20260904105748 | 50 | 225 | 0.0 | 0.0 | 0.00 | 0.00 | 0.00 | 96 | 1011.5 |
| 20260904105227 | 50 | 225 | 0.0 | 0.0 | 0.00 | 0.00 | 0.00 | 96 | 1011.5 |
| 20260904104713 | 51 | 225 | 0.0 | 0.0 | 0.00 | 0.00 | 0.00 | 96 | 1011.5 |
| 20260904104152 | 51 | 225 | 0.0 | 0.0 | 0.00 | 0.00 | 0.00 | 96 | 1011.5 |
| 20260904103633 | 51 | 225 | 0.0 | 0.0 | 0.00 | 0.00 | 0.00 | 96 | 1011.5 |
| 20260904103113 | 51 | 225 | 0.0 | 0.0 | 0.00 | 0.00 | 0.00 | 96 | 1011.5 |
| 20260904102038 | 51 | 225 | 0.0 | 0.0 | 0.00 | 0.00 | 0.00 | 96 | 1011.5 |
| 20260904100958 | 51 | 248 | 0.0 | 0.0 | 0.00 | 0.00 | 0.00 | 96 | 1011.5 |
| 20260904095923 | 51 | 225 | 0.0 | 0.0 | 0.00 | 0.00 | 0.00 | 96 | 1011.5 |
| 20260904095403 | 51 | 225 | 0.0 | 0.0 | 0.00 | 0.00 | 0.00 | 96 | 1011.3 |
| 20260904094843 | 51 | 248 | 0.0 | 0.0 | 0.00 | 0.00 | 0.00 | 96 | 1011.3 |
| 20260904094328 | 51 | 225 | 0.0 | 0.0 | 0.00 | 0.00 | 0.00 | 96 | 1011.3 |
| 20260904093808 | 51 | 248 | 0.0 | 0.0 | 0.00 | 0.00 | 0.00 | 96 | 1011.3 |
| 20260904093248 | 51 | 248 | 0.0 | 0.0 | 0.00 | 0.00 | 0.00 | 96 | 1011.3 |
| 20260904092728 | 51 | 248 | 0.0 | 0.0 | 0.00 | 0.00 | 0.00 | 96 | 1011.3 |
| 20260904092213 | 51 | 225 | 0.0 | 0.0 | 0.00 | 0.00 | 0.00 | 96 | 1011.3 |
| 20260904091133 | 52 | 225 | 0.0 | 0.0 | 0.00 | 0.00 | 0.00 | 96 | 1011.3 |
| 20260904090613 | 52 | 225 | 0.0 | 0.0 | 0.00 | 0.00 | 0.00 | 96 | 1011.3 |
| 20260904090058 | 52 | 248 | 0.0 | 0.0 | 0.00 | 0.00 | 0.00 | 96 | 1011.5 |
| 20260904085538 | 52 | 248 | 0.0 | 0.0 | 0.00 | 0.00 | 0.00 | 96 | 1011.5 |
| 20260904085018 | 52 | 225 | 0.0 | 0.0 | 0.00 | 0.00 | 0.00 | 95 | 1011.4 |
| 20260904084423 | 52 | 225 | 0.0 | 0.0 | 0.00 | 0.00 | 0.00 | 95 | 1011.4 |
| 20260904083903 | 53 | 225 | 0.0 | 0.0 | 0.00 | 0.00 | 0.00 | 95 | 1011.5 |
| 20260904082828 | 53 | 248 | 0.0 | 0.0 | 0.00 | 0.00 | 0.00 | 95 | 1011.4 |
| 20260904082308 | 53 | 225 | 0.0 | 0.0 | 0.00 | 0.00 | 0.00 | 95 | 1011.4 |
| 20260904081748 | 53 | 270 | 0.0 | 0.0 | 0.00 | 0.00 | 0.00 | 95 | 1011.5 |
| 20260904081228 | 53 | 225 | 0.0 | 0.0 | 0.00 | 0.00 | 0.00 | 95 | 1011.5 |
| 20260904080713 | 53 | 225 | 0.0 | 0.0 | 0.00 | 0.00 | 0.00 | 95 | 1011.5 |
| 20260904075633 | 53 | 248 | 0.0 | 0.0 | 0.00 | 0.00 | 0.00 | 95 | 1011.4 |
| 20260904075133 | 53 | 225 | 0.0 | 0.0 | 0.00 | 0.00 | 0.00 | 95 | 1011.4 |
| 20260904074558 | 53 | 270 | 0.0 | 0.0 | 0.00 | 0.00 | 0.00 | 94 | 1011.4 |
| 20260904073538 | 53 | 225 | 0.0 | 0.0 | 0.00 | 0.00 | 0.00 | 94 | 1011.4 |
| 20260904072458 | 54 | 225 | 0.0 | 0.0 | 0.00 | 0.00 | 0.00 | 94 | 1011.3 |
| 20260904071443 | 54 | 68 | 0.0 | 0.0 | 0.00 | 0.00 | 0.00 | 94 | 1011.3 |
| 20260904070923 | 54 | 225 | 0.0 | 0.0 | 0.00 | 0.00 | 0.00 | 94 | 1011.3 |
| 20260904070403 | 54 | 225 | 0.0 | 0.0 | 0.00 | 0.00 | 0.00 | 94 | 1011.3 |
| 20260904065843 | 54 | 225 | 0.0 | 0.0 | 0.00 | 0.00 | 0.57 | 94 | 1011.3 |
| 20260904064808 | 55 | 248 | 0.0 | 0.0 | 0.00 | 0.00 | 0.57 | 94 | 1011.3 |
| 20260904064248 | 55 | 225 | 0.0 | 0.0 | 0.00 | 0.00 | 0.57 | 94 | 1011.3 |
| 20260904063728 | 55 | 225 | 0.0 | 0.0 | 0.00 | 0.00 | 0.57 | 94 | 1011.3 |
| 20260904063213 | 55 | 248 | 0.0 | 0.0 | 0.00 | 0.00 | 0.57 | 94 | 1011.3 |
| 20260904062654 | 55 | 248 | 0.0 | 0.0 | 0.00 | 0.00 | 0.57 | 94 | 1011.2 |
| 20260904062133 | 55 | 248 | 0.0 | 0.0 | 0.00 | 0.00 | 0.57 | 94 | 1011.2 |
| 20260904061613 | 56 | 248 | 0.0 | 0.0 | 0.00 | 0.00 | 0.57 | 94 | 1011.3 |
| 20260904061058 | 56 | 225 | 0.0 | 0.0 | 0.00 | 0.00 | 0.57 | 94 | 1011.3 |
| 20260904060538 | 56 | 225 | 0.0 | 0.0 | 0.00 | 0.00 | 0.57 | 93 | 1011.4 |
| 20260904055458 | 56 | 270 | 0.0 | 0.0 | 0.00 | 0.00 | 0.57 | 93 | 1011.4 |
| 20260904054943 | 56 | 248 | 0.0 | 0.0 | 0.00 | 0.00 | 0.57 | 93 | 1011.4 |
| 20260904054443 | 57 | 225 | 2.0 | 2.0 | 0.00 | 0.00 | 0.57 | 93 | 1011.4 |
| 20260904053923 | 57 | 225 | 2.0 | 2.0 | 0.00 | 0.00 | 0.57 | 92 | 1011.5 |
| 20260904053403 | 57 | 225 | 0.0 | 0.0 | 0.00 | 0.00 | 0.57 | 92 | 1011.5 |
| 20260904052843 | 57 | 225 | 0.0 | 0.0 | 0.00 | 0.00 | 0.57 | 92 | 1011.6 |
| 20260904052323 | 58 | 270 | 0.0 | 0.0 | 0.00 | 0.00 | 0.57 | 91 | 1011.6 |
| 20260904050728 | 58 | 225 | 0.0 | 0.0 | 0.00 | 0.00 | 0.57 | 91 | 1011.6 |
| 20260904050208 | 59 | 225 | 0.0 | 0.0 | 0.00 | 0.00 | 0.57 | 91 | 1011.6 |
| 20260904045653 | 59 | 248 | 0.0 | 0.0 | 0.00 | 0.00 | 0.57 | 91 | 1011.6 |
| 20260904044613 | 59 | 203 | 0.0 | 0.0 | 0.00 | 0.00 | 0.57 | 90 | 1011.6 |
| 20260904044053 | 59 | 225 | 0.0 | 0.0 | 0.00 | 0.00 | 0.57 | 90 | 1011.6 |
| 20260904043538 | 59 | 225 | 0.0 | 0.0 | 0.00 | 0.00 | 0.57 | 89 | 1011.6 |
| 20260904043018 | 59 | 248 | 0.0 | 0.0 | 0.00 | 0.00 | 0.57 | 89 | 1011.5 |